| time (UTC) | temp F | wind direction | speed knots | gust knots | rain 1hr in | rain 24hr in | rain mn in | humidity % | barometer mb |
| 20260508064504 | 48 | 40 | 9.6 | 9.6 | 0.00 | 0.00 | 0.00 | 1023.3 | |
| 20260508063548 | 48 | 341 | 9.6 | 9.6 | 0.00 | 0.00 | 0.00 | 1023.4 | |
| 20260508062702 | 47 | 13 | 11.3 | 17.4 | 0.00 | 0.00 | 0.00 | 1023.4 | |
| 20260508061832 | 47 | 21 | 7.8 | 9.6 | 0.00 | 0.00 | 0.00 | 1023.5 | |
| 20260508060842 | 47 | 173 | 3.5 | 7.8 | 0.00 | 0.00 | 0.00 | 1023.2 | |
| 20260508055949 | 47 | 100 | 3.5 | 3.5 | 0.00 | 0.00 | 0.00 | 1023.1 | |
| 20260508055012 | 47 | 15 | 6.1 | 7.8 | 0.00 | 0.00 | 0.00 | 1023.2 | |
| 20260508054100 | 47 | 302 | 6.1 | 9.6 | 0.00 | 0.00 | 0.00 | 1023.0 | |
| 20260508053139 | 47 | 257 | 7.8 | 9.6 | 0.00 | 0.00 | 0.00 | 1022.7 | |
| 20260508052158 | 47 | 323 | 11.3 | 17.4 | 0.00 | 0.00 | 0.00 | 1022.9 | |
| 20260508051218 | 47 | 83 | 7.8 | 9.6 | 0.00 | 0.00 | 0.00 | 1022.8 | |
| 20260508050344 | 47 | 235 | 6.1 | 7.8 | 0.00 | 0.00 | 0.00 | 1022.8 | |
| 20260508045422 | 47 | 292 | 9.6 | 13.9 | 0.00 | 0.00 | 0.00 | 1022.9 | |
| 20260508044428 | 47 | 259 | 17.4 | 21.7 | 0.00 | 0.00 | 0.00 | 1023.0 | |
| 20260508043548 | 47 | 334 | 11.3 | 13.9 | 0.00 | 0.00 | 0.00 | 1022.9 | |
| 20260508042703 | 46 | 282 | 9.6 | 21.7 | 0.00 | 0.00 | 0.00 | 1022.9 | |
| 20260508041819 | 46 | 289 | 11.3 | 13.9 | 0.00 | 0.00 | 0.00 | 1022.9 | |
| 20260508040958 | 46 | 282 | 9.6 | 9.6 | 0.00 | 0.00 | 0.00 | 1022.8 | |
| 20260508040112 | 46 | 285 | 9.6 | 13.9 | 0.00 | 0.00 | 0.00 | 1022.8 | |
| 20260508035212 | 46 | 249 | 9.6 | 9.6 | 0.00 | 0.00 | 0.00 | 1022.7 | |
| 20260508034259 | 46 | 277 | 9.6 | 9.6 | 0.00 | 0.00 | 0.00 | 1022.6 | |
| 20260508033428 | 46 | 355 | 7.8 | 7.8 | 0.00 | 0.00 | 0.00 | 1022.6 | |
| 20260508032542 | 46 | 36 | 6.1 | 9.6 | 0.00 | 0.00 | 0.00 | 1022.6 | |
| 20260508031638 | 46 | 96 | 3.5 | 9.6 | 0.00 | 0.00 | 0.00 | 1022.4 | |
| 20260508030748 | 46 | 287 | 7.8 | 7.8 | 0.00 | 0.00 | 0.00 | 1022.6 | |
| 20260508025812 | 46 | 8 | 7.8 | 7.8 | 0.00 | 0.00 | 0.00 | 1022.4 | |
| 20260508024942 | 46 | 186 | 3.5 | 7.8 | 0.00 | 0.00 | 0.00 | 1022.6 | |
| 20260508024019 | 46 | 251 | 9.6 | 13.9 | 0.00 | 0.00 | 0.00 | 1022.4 | |
| 20260508023152 | 46 | 245 | 9.6 | 9.6 | 0.00 | 0.00 | 0.00 | 1022.5 | |
| 20260508022202 | 46 | 294 | 7.8 | 9.6 | 0.00 | 0.00 | 0.00 | 1022.7 | |
| 20260508021158 | 46 | 195 | 3.5 | 3.5 | 0.00 | 0.00 | 0.00 | 1022.5 | |
| 20260508020309 | 46 | 240 | 6.1 | 7.8 | 0.00 | 0.00 | 0.00 | 1022.4 | |
| 20260508015342 | 46 | 186 | 6.1 | 7.8 | 0.00 | 0.00 | 0.00 | 1022.8 | |
| 20260508014432 | 46 | 199 | 3.5 | 7.8 | 0.00 | 0.00 | 0.00 | 1022.5 | |
| 20260508013602 | 46 | 7 | 9.6 | 13.9 | 0.00 | 0.00 | 0.00 | 1022.4 | |
| 20260508012603 | 46 | 267 | 7.8 | 9.6 | 0.00 | 0.00 | 0.00 | 1022.4 | |
| 20260508011645 | 46 | 132 | 6.1 | 7.8 | 0.00 | 0.00 | 0.00 | 1022.4 | |
| 20260508010758 | 46 | 294 | 7.8 | 7.8 | 0.00 | 0.00 | 0.00 | 1022.4 | |
| 20260508005822 | 46 | 186 | 6.1 | 7.8 | 0.00 | 0.00 | 0.00 | 1022.5 | |
| 20260508004912 | 46 | 239 | 7.8 | 9.6 | 0.00 | 0.00 | 0.00 | 1022.5 | |
| 20260508004052 | 46 | 139 | 6.1 | 7.8 | 0.00 | 0.00 | 0.00 | 1022.3 | |
| 20260508003049 | 46 | 186 | 6.1 | 9.6 | 0.00 | 0.00 | 0.00 | 1022.3 | |
| 20260508002113 | 46 | 280 | 7.8 | 13.9 | 0.00 | 0.00 | 0.00 | 1022.5 | |
| 20260508001258 | 46 | 259 | 15.6 | 17.4 | 0.00 | 0.00 | 0.00 | 1022.3 | |
| 20260508000434 | 46 | 271 | 7.8 | 13.9 | 0.00 | 0.00 | 0.00 | 1022.3 | |
| 20260507235533 | 47 | 268 | 15.6 | 25.2 | 0.00 | 0.00 | 0.00 | 1022.3 | |
| 20260507234639 | 47 | 269 | 9.6 | 13.9 | 0.00 | 0.00 | 0.00 | 1022.5 | |
| 20260507233818 | 47 | 262 | 11.3 | 17.4 | 0.00 | 0.00 | 0.00 | 1022.4 | |
| 20260507232808 | 47 | 185 | 15.6 | 21.7 | 0.00 | 0.00 | 0.00 | 1022.6 | |
| 20260507231829 | 47 | 320 | 11.3 | 13.9 | 0.00 | 0.00 | 0.00 | 1022.1 | |
| 20260507231012 | 47 | 336 | 11.3 | 13.9 | 0.00 | 0.00 | 0.00 | 1022.3 | |
| 20260507230112 | 48 | 219 | 7.8 | 9.6 | 0.00 | 0.00 | 0.00 | 1022.4 | |
| 20260507225243 | 48 | 65 | 13.9 | 17.4 | 0.00 | 0.00 | 0.00 | 1022.4 | |
| 20260507224300 | 48 | 269 | 17.4 | 21.7 | 0.00 | 0.00 | 0.00 | 1022.2 | |
| 20260507223310 | 48 | 41 | 9.6 | 13.9 | 0.00 | 0.00 | 0.00 | 1022.2 | |
| 20260507222350 | 48 | 289 | 17.4 | 21.7 | 0.00 | 0.00 | 0.00 | 1022.0 | |
| 20260507221502 | 48 | 281 | 15.6 | 25.2 | 0.00 | 0.00 | 0.00 | 1022.4 | |
| 20260507220628 | 48 | 230 | 7.8 | 7.8 | 0.00 | 0.00 | 0.00 | 1022.2 | |
| 20260507215733 | 48 | 319 | 11.3 | 13.9 | 0.00 | 0.00 | 0.00 | 1022.3 | |
| 20260507214819 | 48 | 121 | 1.7 | 3.5 | 0.00 | 0.00 | 0.00 | 1022.0 | |
| 20260507213938 | 48 | 263 | 17.4 | 21.7 | 0.00 | 0.00 | 0.00 | 1022.2 | |
| 20260507213042 | 49 | 63 | 11.3 | 13.9 | 0.00 | 0.00 | 0.00 | 1022.1 | |
| 20260507212103 | 49 | 179 | 3.5 | 3.5 | 0.00 | 0.00 | 0.00 | 1022.0 | |
| 20260507211200 | 49 | 192 | 7.8 | 9.6 | 0.00 | 0.00 | 0.00 | 1021.7 | |
| 20260507210332 | 49 | 132 | 6.1 | 7.8 | 0.00 | 0.00 | 0.00 | 1021.9 | |
| 20260507205333 | 49 | 223 | 9.6 | 13.9 | 0.00 | 0.00 | 0.00 | 1021.9 | |
| 20260507204412 | 49 | 113 | 7.8 | 9.6 | 0.00 | 0.00 | 0.00 | 1021.8 | |
| 20260507203443 | 49 | 168 | 1.7 | 3.5 | 0.00 | 0.00 | 0.00 | 1021.8 | |
| 20260507202612 | 49 | 193 | 7.8 | 9.6 | 0.00 | 0.00 | 0.00 | 1021.9 | |
| 20260507201618 | 49 | 133 | 6.1 | 7.8 | 0.00 | 0.00 | 0.00 | 1021.7 | |
| 20260507200719 | 49 | 228 | 11.3 | 13.9 | 0.00 | 0.00 | 0.00 | 1021.7 | |
| 20260507195902 | 49 | 42 | 7.8 | 9.6 | 0.00 | 0.00 | 0.00 | 1021.5 | |
| 20260507195032 | 49 | 164 | 11.3 | 17.4 | 0.00 | 0.00 | 0.00 | 1021.2 | |
| 20260507194142 | 49 | 93 | 13.9 | 17.4 | 0.00 | 0.00 | 0.00 | 1021.4 | |
| 20260507193138 | 49 | 333 | 19.1 | 25.2 | 0.00 | 0.00 | 0.00 | 1021.1 | |
| 20260507192306 | 49 | 207 | 9.6 | 9.6 | 0.00 | 0.00 | 0.00 | 1021.1 | |
| 20260507191442 | 49 | 321 | 15.6 | 17.4 | 0.00 | 0.00 | 0.00 | 1021.1 | |
| 20260507190642 | 49 | 29 | 13.9 | 17.4 | 0.00 | 0.00 | 0.00 | 1021.3 | |
| 20260507185758 | 49 | 323 | 13.9 | 17.4 | 0.00 | 0.00 | 0.00 | 1021.0 | |
| 20260507184812 | 49 | 333 | 17.4 | 25.2 | 0.00 | 0.00 | 0.00 | 1021.1 | |
| 20260507183903 | 50 | 39 | 23.5 | 33.0 | 0.00 | 0.00 | 0.00 | 1020.7 | |
| 20260507182949 | 50 | 113 | 15.6 | 21.7 | 0.00 | 0.00 | 0.00 | 1020.8 | |
| 20260507182055 | 50 | 207 | 15.6 | 21.7 | 0.00 | 0.00 | 0.00 | 1020.5 | |
| 20260507181059 | 50 | 129 | 6.1 | 7.8 | 0.00 | 0.00 | 0.00 | 1020.5 | |
| 20260507180052 | 50 | 246 | 17.4 | 21.7 | 0.00 | 0.00 | 0.00 | 1020.4 | |
| 20260507175208 | 50 | 125 | 6.1 | 9.6 | 0.00 | 0.00 | 0.00 | 1020.0 | |
| 20260507174332 | 50 | 219 | 15.6 | 21.7 | 0.00 | 0.00 | 0.00 | 1020.0 | |
| 20260507173408 | 50 | 347 | 6.1 | 9.6 | 0.00 | 0.00 | 0.00 | 1019.8 | |
| 20260507172543 | 51 | 279 | 9.6 | 17.4 | 0.00 | 0.00 | 0.00 | 1019.7 | |
| 20260507171549 | 51 | 352 | 15.6 | 21.7 | 0.00 | 0.00 | 0.00 | 1019.6 | |
| 20260507170712 | 51 | 284 | 11.3 | 13.9 | 0.00 | 0.00 | 0.00 | 1019.8 | |
| 20260507165822 | 51 | 238 | 11.3 | 17.4 | 0.00 | 0.00 | 0.00 | 1019.5 | |
| 20260507164752 | 51 | 283 | 7.8 | 9.6 | 0.00 | 0.00 | 0.00 | 1019.8 | |
| 20260507163852 | 51 | 189 | 6.1 | 7.8 | 0.00 | 0.00 | 0.00 | 1019.5 | |
| 20260507162849 | 51 | 327 | 15.6 | 21.7 | 0.00 | 0.00 | 0.00 | 1019.7 | |
| 20260507161903 | 52 | 12 | 7.8 | 9.6 | 0.00 | 0.00 | 0.00 | 1019.9 | |
| 20260507160953 | 52 | 298 | 9.6 | 13.9 | 0.00 | 0.00 | 0.00 | 1019.6 | |
| 20260507155952 | 52 | 334 | 7.8 | 9.6 | 0.00 | 0.00 | 0.00 | 1019.8 | |
| 20260507154953 | 52 | 286 | 9.6 | 13.9 | 0.00 | 0.00 | 0.00 | 1019.6 | |
| 20260507154022 | 52 | 322 | 29.5 | 34.8 | 0.00 | 0.00 | 0.00 | 1019.7 | |
| 20260507153019 | 53 | 221 | 19.1 | 33.0 | 0.00 | 0.00 | 0.00 | 1019.7 | |
| 20260507152039 | 53 | 321 | 15.6 | 21.7 | 0.00 | 0.00 | 0.00 | 1019.5 | |
| 20260507151158 | 53 | 252 | 17.4 | 29.5 | 0.00 | 0.00 | 0.00 | 1019.6 | |
| 20260507150125 | 53 | 96 | 6.1 | 7.8 | 0.00 | 0.00 | 0.00 | 1019.4 | |
| 20260507145252 | 53 | 123 | 1.7 | 3.5 | 0.00 | 0.00 | 0.00 | 1019.4 | |
| 20260507144318 | 52 | 232 | 7.8 | 9.6 | 0.00 | 0.00 | 0.00 | 1019.3 | |
| 20260507143432 | 52 | 92 | 6.1 | 7.8 | 0.00 | 0.00 | 0.00 | 1019.4 | |
| 20260507142608 | 52 | 228 | 7.8 | 9.6 | 0.00 | 0.00 | 0.00 | 1019.2 | |
| 20260507141802 | 53 | 114 | 1.7 | 3.5 | 0.00 | 0.00 | 0.00 | 1019.5 | |
| 20260507140732 | 53 | 306 | 7.8 | 13.9 | 0.00 | 0.00 | 0.00 | 1019.3 | |
| 20260507135740 | 52 | 206 | 3.5 | 7.8 | 0.00 | 0.00 | 0.00 | 1019.4 | |
| 20260507134822 | 53 | 287 | 9.6 | 9.6 | 0.00 | 0.00 | 0.00 | 1019.4 | |
| 20260507133830 | 52 | 180 | 7.8 | 13.9 | 0.00 | 0.00 | 0.00 | 1019.2 | |
| 20260507133012 | 53 | 338 | 11.3 | 13.9 | 0.00 | 0.00 | 0.00 | 1019.3 | |
| 20260507132139 | 53 | 149 | 7.8 | 7.8 | 0.00 | 0.00 | 0.00 | 1019.2 | |
| 20260507131110 | 53 | 333 | 6.1 | 9.6 | 0.00 | 0.00 | 0.00 | 1019.0 | |
| 20260507130120 | 53 | 137 | 1.7 | 7.8 | 0.00 | 0.00 | 0.00 | 1019.3 | |
| 20260507125112 | 53 | 271 | 7.8 | 7.8 | 0.00 | 0.00 | 0.00 | 1019.1 | |
| 20260507124159 | 53 | 321 | 6.1 | 9.6 | 0.00 | 0.00 | 0.00 | 1018.8 | |
| 20260507123202 | 53 | 121 | 0.0 | 0.0 | 0.00 | 0.00 | 0.00 | 1018.8 | |
| 20260507122306 | 54 | 136 | 0.0 | 3.5 | 0.00 | 0.00 | 0.00 | 1018.5 | |
| 20260507121352 | 53 | 113 | 3.5 | 3.5 | 0.00 | 0.00 | 0.00 | 1018.7 | |
| 20260507120338 | 53 | 129 | 3.5 | 3.5 | 0.00 | 0.00 | 0.00 | 1018.7 | |
| 20260507115513 | 52 | 246 | 7.8 | 9.6 | 0.00 | 0.00 | 0.00 | 1018.4 | |
| 20260507114602 | 53 | 188 | 9.6 | 13.9 | 0.00 | 0.00 | 0.00 | 1018.3 | |
| 20260507113639 | 53 | 154 | 1.7 | 3.5 | 0.00 | 0.00 | 0.00 | 1018.1 | |
| 20260507112809 | 53 | 238 | 9.6 | 9.6 | 0.00 | 0.00 | 0.00 | 1018.1 | |
| 20260507111944 | 53 | 273 | 7.8 | 13.9 | 0.00 | 0.00 | 0.00 | 1018.1 | |
| 20260507110240 | 53 | 196 | 6.1 | 7.8 | 0.00 | 0.00 | 0.00 | 1018.1 | |
| 20260507105257 | 52 | 315 | 11.3 | 17.4 | 0.00 | 0.00 | 0.00 | 1018.2 | |
| 20260507104340 | 52 | 222 | 6.1 | 9.6 | 0.00 | 0.00 | 0.00 | 1018.1 | |
| 20260507103430 | 52 | 293 | 6.1 | 7.8 | 0.00 | 0.00 | 0.00 | 1017.7 | |
| 20260507102430 | 51 | 336 | 7.8 | 9.6 | 0.00 | 0.00 | 0.00 | 1017.7 | |
| 20260507101405 | 51 | 294 | 6.1 | 7.8 | 0.00 | 0.00 | 0.00 | 1017.7 | |
| 20260507100410 | 51 | 214 | 6.1 | 7.8 | 0.00 | 0.00 | 0.00 | 1017.8 | |
| 20260507095540 | 51 | 241 | 6.1 | 7.8 | 0.00 | 0.00 | 0.00 | 1017.6 | |
| 20260507094708 | 51 | 124 | 1.7 | 3.5 | 0.00 | 0.00 | 0.00 | 1017.4 | |
| 20260507093847 | 50 | 201 | 7.8 | 9.6 | 0.00 | 0.00 | 0.00 | 1017.5 | |
| 20260507092945 | 50 | 299 | 6.1 | 7.8 | 0.00 | 0.00 | 0.00 | 1017.4 | |
| 20260507092107 | 50 | 166 | 6.1 | 7.8 | 0.00 | 0.00 | 0.00 | 1017.0 | |
| 20260507091046 | 50 | 324 | 7.8 | 7.8 | 0.00 | 0.00 | 0.00 | 1017.1 | |
| 20260507090127 | 50 | 298 | 7.8 | 17.4 | 0.00 | 0.00 | 0.00 | 1016.9 | |
| 20260507085300 | 50 | 332 | 3.5 | 7.8 | 0.00 | 0.00 | 0.00 | 1016.6 | |
| 20260507084400 | 50 | 303 | 9.6 | 9.6 | 0.00 | 0.00 | 0.00 | 1016.6 | |
| 20260507083448 | 51 | 97 | 3.5 | 3.5 | 0.00 | 0.00 | 0.00 | 1016.8 | |
| 20260507082447 | 51 | 184 | 9.6 | 13.9 | 0.00 | 0.00 | 0.00 | 1016.7 | |
| 20260507081518 | 51 | 136 | 0.0 | 3.5 | 0.00 | 0.00 | 0.00 | 1016.4 | |
| 20260507080620 | 50 | 190 | 6.1 | 9.6 | 0.00 | 0.00 | 0.00 | 1016.2 | |
| 20260507075650 | 50 | 215 | 7.8 | 9.6 | 0.00 | 0.00 | 0.00 | 1016.3 | |
| 20260507074808 | 50 | 283 | 13.9 | 21.7 | 0.00 | 0.00 | 0.00 | 1015.9 | |
| 20260507073828 | 50 | 291 | 7.8 | 9.6 | 0.00 | 0.00 | 0.00 | 1016.2 | |
| 20260507072907 | 49 | 266 | 6.1 | 9.6 | 0.00 | 0.00 | 0.00 | 1016.1 | |
| 20260507071917 | 49 | 88 | 6.1 | 7.8 | 0.00 | 0.00 | 0.00 | 1016.1 | |
| 20260507071027 | 49 | 319 | 9.6 | 9.6 | 0.00 | 0.00 | 0.00 | 1015.5 | |
| 20260507070128 | 48 | 190 | 6.1 | 9.6 | 0.00 | 0.00 | 0.00 | 1015.6 | |
| 20260507065100 | 48 | 336 | 3.5 | 7.8 | 0.00 | 0.00 | 0.00 | 1015.5 |